When you browse on this site, cookies collect data to enhance your experience and personalize the content and advertising you see.
Visit our Privacy Policy to learn more. By continuing to use the site, you agree to this use of cookies and data.
  • In Hungary
  • List of Countries
  • For 7 days
  • Water Temperature
  • Weather Map
  • News
  • Weather Widgets
  • user-avatar
    Login

    Hourly Weather Guaiuba

    Today, 15 November, Friday

    Time Temperature Precipitation Wind Pressure Humidity
    00:00 +25°C° 0 mm 2 mps 742 mmHg 90%
    01:00 +25°C° 0 mm 2 mps 742 mmHg 89%
    02:00 +25°C° 0 mm 2 mps 742 mmHg 88%
    03:00 +25°C° 0 mm 2 mps 742 mmHg 87%
    04:00 +25°C° 0 mm 2 mps 742 mmHg 84%
    05:00 +26°C° 0 mm 3 mps 743 mmHg 81%
    06:00 +26°C° 0 mm 3 mps 743 mmHg 78%
    07:00 +27°C° 0 mm 3 mps 744 mmHg 72%
    08:00 +28°C° 0 mm 3 mps 744 mmHg 66%
    09:00 +29°C° 0 mm 3 mps 744 mmHg 59%
    10:00 +33°C° 0 mm 3 mps 744 mmHg 51%
    11:00 +35°C° 0 mm 3 mps 743 mmHg 43%
    12:00 +37°C° 0 mm 4 mps 743 mmHg 35%
    13:00 +37°C° 0 mm 4 mps 742 mmHg 37%
    14:00 +36°C° 0 mm 5 mps 741 mmHg 39%
    15:00 +35°C° 0 mm 5 mps 740 mmHg 42%
    16:00 +33°C° 0 mm 4 mps 740 mmHg 52%
    17:00 +29°C° 0 mm 3 mps 740 mmHg 63%
    18:00 +27°C° 0 mm 3 mps 740 mmHg 74%
    19:00 +26°C° 0 mm 2 mps 741 mmHg 78%
    20:00 +26°C° 0 mm 2 mps 741 mmHg 82%
    21:00 +26°C° 0 mm 2 mps 742 mmHg 86%
    22:00 +26°C° 0 mm 2 mps 741 mmHg 84%
    23:00 +26°C° 0 mm 3 mps 741 mmHg 82%

    Tomorrow, 16 November, Saturday

    Time Temperature Precipitation Wind Pressure Humidity
    00:00 +27°C° 0 mm 3 mps 741 mmHg 80%
    01:00 +27°C° 0 mm 3 mps 741 mmHg 79%
    02:00 +27°C° 0 mm 2 mps 741 mmHg 78%
    03:00 +27°C° 0 mm 2 mps 740 mmHg 77%
    04:00 +27°C° 0.1 mm 2 mps 741 mmHg 77%
    05:00 +27°C° 0.1 mm 2 mps 741 mmHg 77%
    06:00 +27°C° 0.1 mm 2 mps 742 mmHg 76%
    07:00 +28°C° 0 mm 3 mps 742 mmHg 70%
    08:00 +29°C° 0 mm 3 mps 743 mmHg 64%
    09:00 +30°C° 0 mm 3 mps 743 mmHg 58%
    10:00 +31°C° 0 mm 3 mps 743 mmHg 55%
    11:00 +33°C° 0 mm 3 mps 742 mmHg 51%
    12:00 +34°C° 0 mm 3 mps 742 mmHg 48%
    13:00 +34°C° 0 mm 4 mps 741 mmHg 48%
    14:00 +34°C° 0 mm 4 mps 740 mmHg 47%
    15:00 +34°C° 0 mm 4 mps 739 mmHg 47%
    16:00 +32°C° 0 mm 4 mps 740 mmHg 56%
    17:00 +29°C° 0 mm 3 mps 740 mmHg 64%
    18:00 +27°C° 0 mm 2 mps 740 mmHg 73%
    19:00 +26°C° 0 mm 2 mps 740 mmHg 77%
    20:00 +26°C° 0 mm 2 mps 741 mmHg 82%
    21:00 +25°C° 0 mm 2 mps 741 mmHg 87%
    22:00 +25°C° 0 mm 2 mps 741 mmHg 87%
    23:00 +25°C° 0 mm 2 mps 741 mmHg 87%

    Day after tomorrow, 17 November, Sunday

    Time Temperature Precipitation Wind Pressure Humidity
    00:00 +25°C° 0 mm 2 mps 741 mmHg 88%
    01:00 +25°C° 0 mm 2 mps 741 mmHg 88%
    02:00 +25°C° 0 mm 2 mps 740 mmHg 89%
    03:00 +25°C° 0 mm 1 mps 740 mmHg 90%
    04:00 +25°C° 0.1 mm 1 mps 741 mmHg 87%
    05:00 +25°C° 0.1 mm 1 mps 741 mmHg 85%
    06:00 +26°C° 0.1 mm 2 mps 742 mmHg 82%
    07:00 +27°C° 0 mm 2 mps 742 mmHg 73%
    08:00 +29°C° 0 mm 3 mps 743 mmHg 65%
    09:00 +31°C° 0 mm 3 mps 743 mmHg 56%
    10:00 +33°C° 0 mm 4 mps 743 mmHg 52%
    11:00 +34°C° 0 mm 4 mps 742 mmHg 47%
    12:00 +35°C° 0 mm 5 mps 742 mmHg 43%
    13:00 +35°C° 0 mm 5 mps 741 mmHg 44%
    14:00 +35°C° 0 mm 5 mps 741 mmHg 45%
    15:00 +34°C° 0 mm 5 mps 740 mmHg 45%
    16:00 +32°C° 0 mm 4 mps 740 mmHg 55%
    17:00 +29°C° 0 mm 3 mps 740 mmHg 65%
    18:00 +27°C° 0 mm 2 mps 740 mmHg 75%
    19:00 +26°C° 0 mm 2 mps 741 mmHg 79%
    20:00 +26°C° 0 mm 2 mps 741 mmHg 84%
    21:00 +25°C° 0 mm 2 mps 742 mmHg 89%
    22:00 +25°C° 0 mm 2 mps 742 mmHg 88%
    23:00 +26°C° 0 mm 2 mps 741 mmHg 87%

    18 November, Monday

    Time Temperature Precipitation Wind Pressure Humidity
    00:00 +26°C° 0 mm 2 mps 741 mmHg 86%
    01:00 +26°C° 0.1 mm 2 mps 741 mmHg 87%
    02:00 +26°C° 0.1 mm 2 mps 741 mmHg 87%
    03:00 +26°C° 0.1 mm 2 mps 741 mmHg 87%
    04:00 +26°C° 0.1 mm 2 mps 741 mmHg 83%
    05:00 +26°C° 0.1 mm 3 mps 742 mmHg 80%
    06:00 +27°C° 0.1 mm 3 mps 742 mmHg 76%
    07:00 +28°C° 0 mm 3 mps 742 mmHg 70%
    08:00 +29°C° 0 mm 4 mps 743 mmHg 65%
    09:00 +30°C° 0 mm 4 mps 743 mmHg 59%
    10:00 +32°C° 0 mm 4 mps 743 mmHg 53%
    11:00 +34°C° 0 mm 4 mps 743 mmHg 48%
    12:00 +35°C° 0 mm 5 mps 742 mmHg 42%
    13:00 +35°C° 0 mm 5 mps 742 mmHg 42%
    14:00 +35°C° 0 mm 5 mps 741 mmHg 43%
    15:00 +35°C° 0 mm 5 mps 740 mmHg 43%
    16:00 +33°C° 0 mm 4 mps 740 mmHg 51%
    17:00 +30°C° 0 mm 3 mps 741 mmHg 59%
    18:00 +28°C° 0 mm 2 mps 741 mmHg 68%
    19:00 +27°C° 0 mm 2 mps 741 mmHg 73%
    20:00 +26°C° 0 mm 2 mps 742 mmHg 79%
    21:00 +26°C° 0 mm 2 mps 742 mmHg 85%
    22:00 +26°C° 0 mm 2 mps 742 mmHg 86%
    23:00 +26°C° 0 mm 2 mps 742 mmHg 87%

    19 November, Tuesday

    Time Temperature Precipitation Wind Pressure Humidity
    00:00 +26°C° 0 mm 2 mps 742 mmHg 89%
    01:00 +26°C° 0.1 mm 2 mps 741 mmHg 86%
    02:00 +26°C° 0.1 mm 3 mps 741 mmHg 84%
    03:00 +27°C° 0.1 mm 3 mps 741 mmHg 82%
    04:00 +27°C° 0.1 mm 3 mps 742 mmHg 80%
    05:00 +27°C° 0.1 mm 3 mps 742 mmHg 78%
    06:00 +27°C° 0.1 mm 3 mps 743 mmHg 76%
    07:00 +28°C° 0.1 mm 3 mps 743 mmHg 73%
    08:00 +28°C° 0.1 mm 3 mps 743 mmHg 70%
    09:00 +29°C° 0.1 mm 3 mps 744 mmHg 67%
    10:00 +30°C° 0 mm 3 mps 744 mmHg 62%
    11:00 +31°C° 0 mm 3 mps 743 mmHg 57%
    12:00 +33°C° 0 mm 3 mps 743 mmHg 51%
    13:00 +34°C° 0 mm 4 mps 742 mmHg 48%
    14:00 +35°C° 0 mm 4 mps 741 mmHg 45%
    15:00 +35°C° 0 mm 4 mps 741 mmHg 42%
    16:00 +33°C° 0 mm 4 mps 741 mmHg 52%
    17:00 +30°C° 0 mm 3 mps 741 mmHg 62%
    18:00 +27°C° 0 mm 2 mps 741 mmHg 72%
    19:00 +27°C° 0 mm 2 mps 741 mmHg 76%
    20:00 +26°C° 0 mm 2 mps 742 mmHg 81%
    21:00 +26°C° 0 mm 2 mps 742 mmHg 85%
    22:00 +26°C° 0 mm 2 mps 742 mmHg 85%
    23:00 +25°C° 0 mm 2 mps 742 mmHg 86%

    20 November, Wednesday

    Time Temperature Precipitation Wind Pressure Humidity
    00:00 +25°C° 0 mm 2 mps 742 mmHg 87%
    01:00 +26°C° 0 mm 2 mps 742 mmHg 85%
    02:00 +26°C° 0 mm 2 mps 742 mmHg 83%
    03:00 +26°C° 0 mm 2 mps 742 mmHg 82%
    04:00 +26°C° 0.1 mm 3 mps 742 mmHg 80%
    05:00 +27°C° 0.1 mm 3 mps 743 mmHg 79%
    06:00 +27°C° 0.1 mm 3 mps 744 mmHg 77%
    07:00 +28°C° 0 mm 4 mps 744 mmHg 70%
    08:00 +29°C° 0 mm 4 mps 744 mmHg 63%
    09:00 +32°C° 0 mm 4 mps 744 mmHg 55%
    10:00 +33°C° 0 mm 4 mps 744 mmHg 49%
    11:00 +35°C° 0 mm 4 mps 743 mmHg 43%
    12:00 +37°C° 0 mm 4 mps 743 mmHg 36%
    13:00 +36°C° 0 mm 5 mps 742 mmHg 39%
    14:00 +35°C° 0 mm 5 mps 741 mmHg 41%
    15:00 +35°C° 0 mm 5 mps 740 mmHg 43%
    16:00 +32°C° 0 mm 4 mps 741 mmHg 53%
    17:00 +29°C° 0 mm 3 mps 741 mmHg 63%
    18:00 +27°C° 0 mm 3 mps 741 mmHg 72%
    19:00 +27°C° 0 mm 2 mps 741 mmHg 76%
    20:00 +26°C° 0 mm 2 mps 742 mmHg 80%
    21:00 +26°C° 0 mm 2 mps 742 mmHg 84%
    22:00 +26°C° 0 mm 2 mps 742 mmHg 83%
    23:00 +26°C° 0 mm 2 mps 742 mmHg 83%
    Show more